Flag for Poland Weather past 2 weeks in Kraków, Poland

Now
68 °F

Clear.


Feels Like: 68 °F
Forecast: 58 / 87 °F
Wind: 3 mph from North

Location: Krakow Airport

Current Time: Jul 7, 2015 at 1:06:36 AM

Latest Report: Jul 7, 2015 at 12:30 AM


Visibility: 10 mi

Pressure: 30.09 "Hg

Humidity: 83%

Dew point: 63 °F

Location of KrakówLocation

Historic Weather in Kraków — Graph

°F

Kraków temperature yesterday

Maximum temperature yesterday: 91 °F (at 3:30 PM)
Minimum temperature yesterday: 63 °F (at 4:00 AM)
Average temperature yesterday: 78 °F

Past Weeks' High & Low Weather Summary

 TemperatureHumidityPressure
High91 °F (Jul 5, 3:30 PM)100% (Jun 22, 12:00 AM)30.39 "Hg (Jun 22, 12:00 AM)
Low45 °F (Jun 22, 3:00 AM)30% (Jul 3, 4:30 PM)29.71 "Hg (Jun 23, 7:30 AM)
Average66 °F68%30.11 "Hg
* Reported Midnight between Jun 21 and Jun 22 — Midnight between Jul 6 and Jul 7, Kraków, Weather by CustomWeather, © 2015

Note: Actual official high and low records may vary slightly from our data, if they occured in-between our weather recording intervals... More about our weather records

Advertising

Kraków weather history for previous 24 hours

 ConditionsComfort  
Time TempWeatherWind HumidityBarometerVisibility
12:00 AM
Tue, Jul 7
68 °FClear.1 mph83%30.09 "Hg10 mi
11:00 PM
Mon, Jul 6
72 °FPassing clouds.3 mph73%30.09 "HgN/A
10:30 PM73 °FPassing clouds.3 mph69%30.09 "HgN/A
10:00 PM75 °FPassing clouds.5 mph61%30.09 "HgN/A
9:30 PM77 °FPartly sunny.3 mph57%30.07 "HgN/A
9:00 PM77 °FPartly sunny.7 mph57%30.07 "HgN/A
8:30 PM79 °FScattered clouds.8 mph58%30.07 "HgN/A
8:00 PM81 °FPassing clouds.9 mph58%30.04 "HgN/A
7:30 PM82 °FSunny.12 mph55%30.04 "Hg10 mi
7:00 PM84 °FSunny.10 mph51%30.04 "Hg10 mi
6:30 PM86 °FPassing clouds.13 mph49%30.01 "HgN/A
6:00 PM88 °FSunny.10 mph40%30.01 "Hg10 mi
5:30 PM88 °FSunny.13 mph43%30.01 "Hg10 mi
5:00 PM90 °FPassing clouds.12 mph41%30.01 "HgN/A
4:30 PM88 °FSunny.12 mph43%30.01 "Hg10 mi
4:00 PM90 °FPassing clouds.15 mph38%30.01 "HgN/A
3:30 PM91 °FSunny.14 mph34%30.01 "Hg10 mi
3:00 PM90 °FPassing clouds.13 mph38%30.01 "HgN/A
2:30 PM88 °FSunny.17 mph38%30.01 "Hg10 mi
2:00 PM88 °FSunny.14 mph38%30.01 "Hg10 mi
1:30 PM88 °FSunny.9 mph46%30.01 "Hg10 mi
1:00 PM86 °FSunny.13 mph46%30.01 "Hg10 mi
12:30 PM88 °FSunny.14 mph43%30.01 "Hg10 mi
12:00 PM90 °FSunny.12 mph41%30.01 "Hg10 mi
11:30 AM86 °FSunny.13 mph43%30.01 "Hg10 mi
11:00 AM86 °FSunny.13 mph43%30.01 "Hg10 mi
10:30 AM84 °FSunny.15 mph48%30.01 "Hg10 mi
10:00 AM84 °FSunny.16 mph45%30.01 "Hg10 mi
9:30 AM82 °FPassing clouds.8 mph51%30.01 "HgN/A
9:00 AM79 °FPassing clouds.5 mph61%30.01 "HgN/A
8:30 AM77 °FSunny.3 mph61%30.01 "Hg10 mi
8:00 AM75 °FSunny.2 mph65%30.01 "Hg10 mi
7:30 AM72 °FSunny.2 mph73%30.01 "Hg10 mi
7:00 AM72 °FSunny.1 mph73%30.01 "Hg10 mi
6:30 AM66 °FSunny.1 mph83%30.01 "Hg10 mi
6:00 AM64 °FSunny.1 mph88%30.01 "Hg10 mi
5:30 AM64 °FClear.1 mph83%30.01 "Hg10 mi
5:00 AM63 °FClear.2 mph88%30.01 "Hg10 mi
4:30 AM63 °FClear.1 mph94%30.01 "Hg10 mi
4:00 AM63 °FClear.2 mph88%30.01 "Hg10 mi
3:30 AM64 °FClear.1 mph83%30.01 "Hg10 mi
3:00 AM64 °FClear.1 mph88%29.98 "Hg10 mi
2:30 AM66 °FClear.3 mph83%29.98 "Hg10 mi
2:00 AM66 °FClear.2 mph83%29.98 "Hg10 mi
1:30 AM68 °FClear.1 mph78%30.01 "Hg10 mi
1:00 AM68 °FClear.1 mph78%30.01 "Hg10 mi
Weather by CustomWeather, © 2015

See weather overviewHow to use our weather pages